Погода в Мангите

Узбекистан     42°06′47″N   60°03′57″E
темп.,
°C
ветер,
м/с
пор.,
м/с
влажн.,
%
обл.,
%
осадки,
мм/ч
давл.,
гПа
погр.,
м
27 января, ср
ср2723:00−6св34710 0.0 102969
02:00−6св33820 0.0 102931
05:00−6св23860 0.0 102922
08:00−6всв33850 0.0 102923
11:000в24620 0.0 1029311
14:00+6вюв33400 0.0 1028631
17:00+7в44400 0.0 1027670
20:000в44740 0.0 102872
28 января, чт
чт2823:00−1вюв34810 0.0 102861
02:00−1вюв45790 0.0 102787
05:00−2вюв45780 0.0 102662
08:00−2вюв47710 0.0 1026105
11:00+4вюв69440 0.0 1026315
14:00+10вюв68290 0.0 1024467
17:00+8вюв711340 0.0 1023393
20:00+3вюв712500 0.0 1023252
29 января, пт
пт2923:00+2вюв7134933 0.0 1022235
02:00+2вюв61250100 0.0 1020218
05:00+2вюв71251100 0.0 1019223
08:00+2вюв8144874 0.0 1019252
11:00+7вюв8133187 0.0 1018367
14:00+14юв81218100 0.0 1017684
17:00+13юв8121996 0.0 1015604
20:00+7юв5103167 0.0 1015193
30 января, сб
сб3023:00+6юв453437 0.0 101558
02:00+6вюв573196 0.0 1015108
05:00+5ююв363498 0.0 1013113
08:00+4вюв343784 0.0 101348
11:00+10юв352572 0.0 1012350
14:00+13всв2321100 0.0 1010439
17:00+13вюв4523100 0.0 1009459
20:00+7в2338100 0.0 100922
31 января, вс
вс3123:00+5юв1146100 0.0 100822
02:00+7ссв2338100 0.0 100729
05:00+5ююз2343100 0.0 100722
08:00+3зсз2347100 0.0 100722
11:00+8з233292 0.0 1008337
14:00+12з672481 0.0 1007673
17:00+11з562640 0.0 10081111
20:00+6сз44530 0.0 101056